Flag for U.S.A. Weather past 2 weeks in Idaho Falls, Idaho, U.S.A.

Now
65 °F

Sunny.


Feels Like: 65 °F
Forecast: 47 / 84 °F
Wind: 10 mph from Southwest

Location: Fanning Field

Current Time: Jul 26, 2014 at 12:03:21 AM

Latest Report: Jul 25, 2014 at 10:53 PM


Visibility: 10 mi

Pressure: 29.93 "Hg

Humidity: 34%

Dew point: 36 °F

Location of Idaho FallsLocation

Historic Weather in Idaho Falls — Graph

°F

Idaho Falls temperature yesterday

Maximum temperature yesterday: 83 °F (at 4:53 PM)
Minimum temperature yesterday: 47 °F (at 6:53 AM)
Average temperature yesterday: 67 °F

Past Weeks' High & Low Weather Summary

 TemperatureHumidityPressure
High94 °F (Jul 23, 4:53 PM)93% (Jul 15, 6:53 AM)30.16 "Hg (Jul 15, 6:53 AM)
Low47 °F (Jul 25, 6:53 AM)11% (Jul 23, 6:53 PM)29.76 "Hg (Jul 20, 6:53 PM)
Average73 °F45%29.94 "Hg
* Reported Jul 10 10:53 PM — Jul 25 10:53 PM, Idaho Falls, Weather by CustomWeather, © 2014

Note: Actual official high and low records may vary slightly from our data, if they occured in-between our weather recording intervals... More about our weather records

Advertising

Idaho Falls weather history for previous 24 hours

 ConditionsComfort  
Time TempWeatherWind HumidityBarometerVisibility
10:53 PM
Jul 25
65 °FSunny.10 mph34%29.93 "Hg10 mi
9:53 PM74 °FSunny.17 mph21%29.90 "Hg10 mi
8:53 PM77 °FSunny.18 mph20%29.88 "Hg10 mi
7:53 PM81 °FSunny.20 mph18%29.89 "Hg10 mi
6:53 PM83 °FSunny.17 mph16%29.90 "Hg10 mi
5:53 PM83 °FSunny.20 mph15%29.91 "Hg10 mi
4:53 PM83 °FSunny.20 mph14%29.93 "Hg10 mi
3:53 PM82 °FSunny.15 mph13%29.96 "Hg10 mi
3:03 PM80 °FSunny.14 mph15%30.09 "Hg2 mi
2:53 PM80 °FSunny.14 mph15%29.96 "Hg10 mi
1:53 PM77 °FSunny.13 mph17%29.98 "Hg10 mi
12:53 PM74 °FSunny.13 mph21%30.01 "Hg10 mi
11:53 AM70 °FSunny.13 mph28%30.02 "Hg10 mi
10:53 AM66 °FSunny.14 mph29%30.03 "Hg10 mi
9:53 AM63 °FSunny.15 mph30%30.04 "Hg10 mi
8:53 AM58 °FSunny.9 mph38%30.05 "Hg10 mi
7:53 AM53 °FClear.9 mph45%30.04 "Hg10 mi
6:53 AM47 °FClear.6 mph56%30.05 "Hg10 mi
5:53 AM48 °FClear.7 mph52%30.03 "Hg10 mi
4:53 AM48 °FClear.8 mph56%30.02 "Hg10 mi
3:53 AM50 °FClear.9 mph52%30.01 "Hg10 mi
2:53 AM57 °FClear.9 mph41%29.98 "Hg10 mi
1:53 AM60 °FClear.14 mph38%29.97 "Hg10 mi
12:53 AM59 °FClear.9 mph41%29.97 "Hg10 mi
Weather by CustomWeather, © 2014

See weather overviewHow to use our weather pages